FW9511 Weather Reports


time (UTC)temp
F
wind
direction
speed
knots
gust
knots
rain 1hr
in
rain 24hr
in
rain mn
in
humidity
%
barometer
mb
20260504191607 55 258 9.6 31.3 0.00 0.83 0.24 64 1000.9
20260504190040 55 234 10.4 26.1 0.00 0.83 0.24 64 1000.8
20260504184549 54 268 16.5 26.9 0.00 0.86 0.24 67 1000.7
20260504183038 53 241 13.0 27.8 0.00 0.86 0.24 69 1000.8
20260504181544 52 281 10.4 30.4 0.00 0.86 0.24 73 1000.6
20260504180043 50 216 11.3 30.4 0.00 0.86 0.24 77 1000.6
20260504174538 50 233 17.4 40.0 0.00 0.86 0.24 77 1000.6
20260504173038 50 239 14.8 36.5 0.00 0.86 0.24 77 1000.3
20260504171541 49 261 20.9 37.4 0.00 0.86 0.24 77 1000.1
20260504081542 36 220 19.1 32.2 0.01 0.73 0.11 97 981.6
20260504044537 38 228 13.0 25.2 0.00 0.65 0.03 99 975.1
20260504043044 38 184 13.0 24.3 0.01 0.65 0.03 99 974.3
20260504041541 38 179 7.8 20.9 0.01 0.65 0.03 98 973.7
20260504040040 37 150 9.6 20.0 0.03 0.65 0.03 98 973.3
20260504034543 38 149 13.0 27.8 0.05 0.65 0.03 98 973.4
20260504033050 38 154 15.6 29.5 0.05 0.64 0.02 98 974.1
20260504031538 38 105 17.4 36.5 0.05 0.64 0.02 98 974.8
20260504030059 38 117 15.6 33.9 0.03 0.62 0.00 98 975.6
20260504024544 38 103 20.0 36.5 0.01 0.60 0.60 98 976.6
20260504023038 38 90 19.1 30.4 0.00 0.58 0.58 98 977.7
20260504021545 38 130 20.0 33.0 0.00 0.58 0.58 98 978.7
20260504020046 39 138 15.6 29.5 0.00 0.58 0.58 98 979.6
20260504014543 39 137 16.5 26.9 0.00 0.58 0.58 98 980.5
20260504013041 40 105 16.5 28.7 0.01 0.58 0.58 98 981.4
20260504011538 41 149 14.8 25.2 0.02 0.58 0.58 98 982.0
20260504010040 41 156 13.9 24.3 0.03 0.58 0.58 98 982.6
20260504004540 41 92 14.8 25.2 0.04 0.58 0.58 99 983.2
20260504003042 40 96 16.5 33.0 0.03 0.58 0.58 98 983.4
20260504001544 39 108 15.6 33.0 0.03 0.57 0.57 98 984.0
20260504000104 39 72 14.8 31.3 0.03 0.56 0.56 98 984.6
20260503234540 39 97 20.9 34.8 0.04 0.55 0.55 98 984.9
20260503233040 39 62 23.5 44.3 0.07 0.55 0.55 98 985.9
20260503231546 39 87 16.5 40.8 0.10 0.54 0.54 98 986.9
20260503230045 39 88 18.2 36.5 0.15 0.52 0.52 98 987.4
20260503224537 38 58 15.6 33.9 0.18 0.51 0.51 98 988.2
20260503223041 38 80 14.8 28.7 0.21 0.47 0.47 98 989.4
20260503221541 37 58 16.5 28.7 0.23 0.44 0.44 98 990.4
20260503220038 37 64 17.4 28.7 0.18 0.38 0.38 98 991.8
20260503214538 37 71 14.8 27.8 0.14 0.32 0.32 97 993.1
20260503213044 37 57 11.3 28.7 0.12 0.26 0.26 97 993.7
20260503211543 37 78 13.0 24.3 0.11 0.21 0.21 97 994.4
20260503210040 37 67 16.5 31.3 0.12 0.20 0.20 97 994.5
20260503204540 37 56 13.0 27.8 0.11 0.18 0.18 97 995.5
20260503203043 37 75 13.9 24.3 0.09 0.14 0.14 97 995.8
20260503201539 38 77 17.4 27.8 0.06 0.10 0.10 96 996.9
20260503200045 39 64 18.2 31.3 0.05 0.08 0.08 96 996.7
20260503194538 40 71 18.2 29.5 0.07 0.07 0.07 96 997.7
20260503193042 41 67 11.3 21.7 0.05 0.05 0.05 96 998.8